This demonstration page uses our WeatherBlox Daily Observations layout. Learn more.

Left ArrowRight Arrow

Hourly Observations for February 7, 2018

Temp ( °F °C ) Dew Point ( °F °C ) Humidity (%) Winds ( mph kmh ) Pressure ( in mb ) Visibility ( mi km ) Precip ( " mm )
12:15 am 00:15 Mostly Cloudy 28 -2 28 -2 100 100 N N/A 30.50 1033 10 16 N/A
12:35 am 00:35 Cloudy 30 -1 30 -1 100 100 N N/A 30.48 1032 10 16 N/A
12:55 am 00:55 Cloudy 32 undefined 30 -1 93 93 N N/A 30.48 1032 10 16 N/A
1:15 am 01:15 Cloudy 32 undefined 30 -1 93 93 N N/A 30.48 1032 10 16 N/A
1:35 am 01:35 Cloudy 32 undefined 30 -1 93 93 N N/A 30.48 1032 10 16 N/A
1:55 am 01:55 Cloudy 32 undefined 30 -1 93 93 N N/A 30.48 1032 10 16 N/A
2:15 am 02:15 Cloudy 32 undefined 30 -1 93 93 N N/A 30.48 1032 10 16 N/A
2:35 am 02:35 Cloudy 32 undefined 30 -1 93 93 E 3 6 30.45 1031 10 16 N/A
2:55 am 02:55 Cloudy 32 undefined 30 -1 93 93 N N/A 30.45 1031 10 16 N/A
3:15 am 03:15 Cloudy 32 undefined 30 -1 93 93 SSE 5 7 30.45 1031 10 16 N/A
3:35 am 03:35 Cloudy 32 undefined 28 -2 87 87 SE 5 7 30.45 1031 10 16 N/A
3:55 am 03:55 Cloudy 34 1 28 -2 81 81 SE 6 9 30.42 1030 10 16 N/A
4:15 am 04:15 Cloudy 34 1 28 -2 81 81 SSE 7 11 30.42 1030 10 16 N/A
4:35 am 04:35 Cloudy with Light Wintry Mix 34 1 28 -2 81 81 SSE 6 9 30.42 1030 10 16 N/A
4:55 am 04:55 Cloudy 34 1 28 -2 81 81 SSE 7 11 30.39 1029 10 16 N/A
5:15 am 05:15 Cloudy 34 1 27 -3 75 75 SSE 10 17 30.39 1029 10 16 N/A
5:35 am 05:35 Cloudy with Light Wintry Mix 34 1 28 -2 81 81 SSE 10 17 30.39 1029 7 11 N/A
5:55 am 05:55 Cloudy with Light Wintry Mix 32 undefined 28 -2 87 87 SSE 12 19 30.39 1029 10 16 N/A
6:15 am 06:15 Cloudy with Light Wintry Mix 32 undefined 30 -1 93 93 SE 8 13 30.36 1028 5 8 N/A
6:35 am 06:35 Cloudy with Light Wintry Mix 32 undefined 30 -1 93 93 SSE 6 9 30.36 1028 10 16 N/A
6:55 am 06:55 Cloudy 32 undefined 30 -1 93 93 S 5 7 30.36 1028 10 16 N/A
7:15 am 07:15 Cloudy with Light Wintry Mix 32 undefined 30 -1 93 93 N N/A 30.33 1027 7 11 N/A
7:35 am 07:35 Cloudy 32 undefined 30 -1 93 93 SE 3 6 30.33 1027 10 16 N/A
7:55 am 07:55 Cloudy 32 undefined 30 -1 93 93 N N/A 30.33 1027 10 16 N/A
8:15 am 08:15 Cloudy 32 undefined 30 -1 93 93 N N/A 30.30 1026 7 11 N/A
8:35 am 08:35 Cloudy 32 undefined 32 undefined 100 100 N N/A 30.30 1026 7 11 N/A
8:55 am 08:55 Cloudy 32 undefined 32 undefined 100 100 N N/A 30.30 1026 7 11 N/A
9:15 am 09:15 Cloudy 32 undefined 32 undefined 100 100 N N/A 30.30 1026 7 11 N/A
9:35 am 09:35 Cloudy 32 undefined 32 undefined 100 100 SSE 3 6 30.27 1025 7 11 N/A
9:55 am 09:55 Cloudy with Light Snow 32 undefined 32 undefined 100 100 SSE 5 7 30.24 1024 2 3 N/A
10:15 am 10:15 Cloudy with Light Snow 32 undefined 32 undefined 100 100 N N/A 30.24 1024 2 2 N/A
10:35 am 10:35 Cloudy with Light Snow 32 undefined 32 undefined 100 100 SW 3 6 30.21 1023 2 3 N/A
10:55 am 10:55 Cloudy with Light Wintry Mix 32 undefined 32 undefined 100 100 N N/A 30.21 1023 3 4 N/A
11:15 am 11:15 Cloudy with Light Wintry Mix 32 undefined 32 undefined 100 100 SW 3 6 30.18 1022 2 3 N/A
11:35 am 11:35 Cloudy with Light Wintry Mix 32 undefined 32 undefined 100 100 N N/A 30.18 1022 2 2 N/A
11:55 am 11:55 Cloudy with Light Wintry Mix 32 undefined 32 undefined 100 100 N N/A 30.15 1021 2 2 N/A
12:15 pm 12:15 Cloudy with Light Snow 32 undefined 32 undefined 100 100 N N/A 30.12 1020 1 2 N/A
12:35 pm 12:35 Cloudy with Light Snow 32 undefined 32 undefined 100 100 N N/A 30.09 1019 1 1 0.02 0.51
12:55 pm 12:55 Cloudy with Light Snow 32 undefined 32 undefined 100 100 N N/A 30.06 1018 1 2 0.07 1.78
1:15 pm 13:15 Cloudy with Light Wintry Mix 32 undefined 32 undefined 100 100 SSE 5 7 30.06 1018 1 2 0.16 4.06
1:35 pm 13:35 Cloudy with Light Wintry Mix 32 undefined 32 undefined 100 100 S 7 11 30.06 1018 2 3 0.30 7.62
1:55 pm 13:55 Cloudy with Light Wintry Mix 32 undefined 32 undefined 100 100 SSE 10 17 30.00 1016 3 4 0.41 10.41
2:15 pm 14:15 Cloudy with Light Wintry Mix 32 undefined 32 undefined 100 100 SSW 6 9 30.03 1017 2 3 0.03 0.76
2:35 pm 14:35 Cloudy with Mist and Fog 32 undefined 32 undefined 100 100 S 5 7 30.00 1016 3 5 0.05 1.27
2:55 pm 14:55 Cloudy with Mist and Fog 32 undefined 32 undefined 100 100 SSW 5 7 30.00 1016 2 3 0.05 1.27
3:15 pm 15:15 Cloudy with Mist and Fog 32 undefined 32 undefined 100 100 S 6 9 29.97 1015 2 3 0.01 0.25
3:35 pm 15:35 Cloudy with Mist and Fog 32 undefined 32 undefined 100 100 W 5 7 30.00 1016 2 3 0.02 0.51
3:55 pm 15:55 Cloudy with Mist and Fog 32 undefined 32 undefined 100 100 N N/A 30.00 1016 3 4 0.02 0.51
4:15 pm 16:15 Cloudy with Mist and Fog 34 1 34 1 100 100 NNW 5 7 30.03 1017 3 4 0.01 0.25
4:35 pm 16:35 Cloudy with Mist and Fog 34 1 34 1 100 100 NW 3 6 30.03 1017 4 6 0.01 0.25
4:55 pm 16:55 Cloudy with Mist and Fog 34 1 34 1 100 100 N N/A 30.03 1017 5 8 0.01 0.25
5:15 pm 17:15 Cloudy with Mist and Fog 34 1 34 1 100 100 N N/A 30.03 1017 4 6 0.01 0.25
5:35 pm 17:35 Cloudy with Mist and Fog 34 1 34 1 100 100 W 6 9 30.03 1017 5 8 0.01 0.25
5:55 pm 17:55 Cloudy 34 1 34 1 100 100 W 5 7 30.03 1017 10 16 0.01 0.25
6:15 pm 18:15 Cloudy 36 2 36 2 100 100 NW 6 9 30.06 1018 10 16 N/A
6:35 pm 18:35 Cloudy 37 3 37 3 100 100 NNW 7 11 30.09 1019 10 16 N/A
6:55 pm 18:55 Cloudy 39 4 36 2 87 87 NW 14 22 30.09 1019 10 16 N/A
7:15 pm 19:15 Cloudy 37 3 36 2 93 93 NNW 9 15 30.09 1019 10 16 N/A
7:35 pm 19:35 Cloudy 37 3 36 2 93 93 NNW 13 20 30.12 1020 10 16 N/A
7:55 pm 19:55 Cloudy 37 3 34 1 87 87 NNW 16 26 30.12 1020 10 16 N/A
8:15 pm 20:15 Cloudy 37 3 34 1 87 87 NNW 17 28 30.15 1021 10 16 N/A
8:35 pm 20:35 Partly Cloudy 36 2 32 undefined 87 87 NNW 22 35 30.15 1021 10 16 N/A
8:55 pm 20:55 Clear 36 2 32 undefined 87 87 NNW 18 30 30.15 1021 10 16 N/A
9:15 pm 21:15 Clear 36 2 32 undefined 87 87 NNW 16 26 30.18 1022 10 16 N/A
9:35 pm 21:35 Clear 36 2 30 -1 81 81 NNW 20 31 30.18 1022 10 16 N/A
9:55 pm 21:55 Mostly Cloudy 34 1 30 -1 87 87 NNW 16 26 30.21 1023 10 16 N/A
10:15 pm 22:15 Cloudy 34 1 28 -2 81 81 N 15 24 30.21 1023 10 16 N/A
10:35 pm 22:35 Cloudy 34 1 28 -2 81 81 N 13 20 30.24 1024 10 16 N/A
10:55 pm 22:55 Cloudy 34 1 30 -1 87 87 N 12 19 30.24 1024 10 16 N/A
11:15 pm 23:15 Cloudy 34 1 28 -2 81 81 N 10 17 30.24 1024 10 16 N/A
11:35 pm 23:35 Cloudy 32 undefined 28 -2 87 87 N 10 17 30.27 1025 10 16 N/A
11:55 pm 23:55 Cloudy 32 undefined 28 -2 87 87 N 14 22 30.27 1025 10 16 N/A

Powered by AerisWeather